This demonstration page uses our WeatherBlox Daily Observations layout. Learn more.

Left ArrowRight Arrow

39.29038, -76.61219

Hourly Observations for February 9, 2019

Temp ( °F °C ) Dew Point ( °F °C ) Humidity (%) Winds ( mph kmh ) Pressure ( in mb ) Visibility ( mi km ) Precip ( " mm )
12:54 am 00:54 undefined 34 1.1 9 -12.8 35 35 undefined N/A 30.43 1030 N/A N/A
1:54 am 01:54 undefined 33 0.6 10 -12.2 38 38 undefined N/A 30.46 1032 N/A N/A
2:54 am 02:54 undefined 31 -0.6 7 -13.9 36 36 undefined N/A 30.48 1032 N/A N/A
3:54 am 03:54 undefined 30 -1.1 8 -13.3 39 39 undefined N/A 30.50 1033 N/A N/A
4:54 am 04:54 undefined 30 -1.1 8 -13.3 39 39 undefined N/A 30.61 1037 N/A N/A
5:54 am 05:54 undefined 29 -1.7 6 -14.4 38 38 undefined N/A 30.52 1034 N/A N/A
6:54 am 06:54 undefined 28 -2.2 7 -13.9 41 41 undefined N/A 30.66 1038 N/A N/A
7:34 am 07:34 undefined 27 -2.8 4 -15.6 37 37 undefined N/A 30.72 1040 N/A N/A
7:54 am 07:54 undefined 27 -2.8 4 -15.6 37 37 undefined N/A 30.71 1040 N/A N/A
8:54 am 08:54 undefined 27 -2.8 5 -15 39 39 undefined N/A 30.66 1038 N/A N/A
9:54 am 09:54 undefined 28 -2.2 5 -15 37 37 undefined N/A 30.72 1040 N/A N/A
10:54 am 10:54 undefined 29 -1.7 5 -15 36 36 undefined N/A 30.77 1042 N/A N/A
11:54 am 11:54 undefined 32 undefined 6 -14.4 33 33 undefined N/A 30.77 1042 N/A N/A
12:54 pm 12:54 undefined 34 1.1 6 -14.4 31 31 undefined N/A 30.75 1041 N/A N/A
1:54 pm 13:54 undefined 35 1.7 7 -13.9 31 31 undefined N/A 30.71 1040 N/A N/A
2:54 pm 14:54 undefined 35 1.7 4 -15.6 27 27 undefined N/A 30.68 1039 N/A N/A
3:54 pm 15:54 undefined 35 1.7 5 -15 28 28 undefined N/A 30.69 1039 N/A N/A
4:54 pm 16:54 undefined 34 1.1 5 -15 29 29 undefined N/A 30.70 1040 N/A N/A
5:54 pm 17:54 undefined 34 1.1 5 -15 29 29 undefined N/A 30.72 1040 N/A N/A
6:54 pm 18:54 undefined 33 0.6 6 -14.4 32 32 undefined N/A 30.73 1041 N/A N/A
7:54 pm 19:54 undefined 33 0.6 5 -15 30 30 undefined N/A 30.74 1041 N/A N/A
8:54 pm 20:54 undefined 32 undefined 6 -14.4 33 33 undefined N/A 30.74 1041 N/A N/A
9:54 pm 21:54 undefined 31 -0.6 8 -13.3 38 38 undefined N/A 30.77 1042 N/A N/A
10:54 pm 22:54 undefined 31 -0.6 6 -14.4 35 35 undefined N/A 30.76 1042 N/A N/A
11:54 pm 23:54 undefined 30 -1.1 7 -13.9 38 38 undefined N/A 30.74 1041 N/A N/A

Powered by AerisWeather